DELTA 1 DEB, 9702

Orbit data source: Space-Track

DELTA 1 DEB, 9702 is space debris in LEO originally from a launch on Tue, 06 Nov 1973 UTC launched from the Air Force Western Test Range (AFWTR). Debris objects in space refer to the collection of defunct objects orbiting the Earth. Examples of debris include non-operational satellites, rocket bodies, and fragments generated from explosions, collisions, or faulty payload assembly.

Loading next visibility...
Identifier
9702, 1973-086GA
Orbit
LEO
Last TLE update
9 hours ago
Origin
Manufacturer
Unknown
Mission
Spacecraft
Bus & Motor
Unknown
Mass
Unknown
Launch date (UTC)
1973-11-06 (52 years ago)
Launch vehicle
Unknown
Launch site
Air Force Western Test Range (AFWTR)
Object type
Payload
Rocket body
Debris
Shape & HBR
Unknown
Radar Cross Section
Small (<0.1 m²)

Expand to show TLE details & history

TLE from 9 hours ago
0 DELTA 1 DEB
1 09702U 73086GA  25187.88106076  .00003842  00000-0  49531-1 0  9991
2 09702 103.0751 151.5297 0751694  18.1623  45.9218 11.42393810151165
Epoch: 2025-07-06T21:08Z
TLE epoch observation values (Epoch: 2025-07-06T21:08:43.649Z)
Latitude
66.90156°
Longitude
-123.56154°
Altitude
1,551.637 km
Speed
7.27 km/s
True Right ascension
07h 54m 52s
True Declination
66° 47' 23"
Sunlit
Object was in daylight at epoch
Visualization orbit readout
Latitude
24.44534°
Longitude
95.61509°
Altitude
2,388.963 km
Speed
6.566 km/s
Apparent Right ascension
00h 58m 05s
Apparent Declination
-3° 28' 44"
Sunlit
Object is in daylight
Visualization observer readout
Local Sidereal Time
18:04:09
Azimuth
83.955° E
Elevation
-12.558°
Doppler factor
1
Orbital elements
Apogee altitude
2,573.121 km
Perigee altitude
1,321.484 km
Semi-major axis
8,325.439 km
Eccentricity
0.07517
Inclination
103.0751°
RAAN
151.5297°
Arg. of periapsis
18.1623°
True anomaly
Unknown
Mean anomaly
45.9218°
Eccentric anomaly
Unknown
Mean motion
2.85715 °/min
Orbital period
126 mins
BSTAR
0.049531
Loading maneuver chart data...
Loading SW <> Apogee altitude chart data...
Loading historical data...
Loading historical data...
Loading historical data...
Loading historical data...
Loading historical data...
Loading historical data...
Loading historical data...

DELTA 1 DEB Visibility forecast

Observer location: undefined°, undefined°

Span
Click to sort rows by Start time (UTC) header in descending order
Start Az.
Max El. time (UTC)
Max El. Az.
Max El.
End time (UTC)
End Az.
8 mins2025-07-07 08:01:46.889Z71.376° E2025-07-07 08:05:46.889Z91.828° ESE12.196°2025-07-07 08:09:46.889Z110.898° ESE
22 mins2025-07-07 10:00:46.889Z29.138° NE2025-07-07 10:09:46.889Z105.569° ESE41.516°2025-07-07 10:22:46.889Z185.228° SSW
19 mins2025-07-07 12:04:46.889Z0.865° NNE2025-07-07 12:12:46.889Z298.242° NW33.812°2025-07-07 12:23:46.889Z238.437° WSW
12 mins2025-07-07 20:03:46.889Z108.909° ESE2025-07-07 20:08:46.889Z52.855° ENE29.814°2025-07-07 20:15:46.889Z355.29° N
12 mins2025-07-07 22:06:46.889Z195.258° SSW2025-07-07 22:11:46.889Z256.531° W35.06°2025-07-07 22:18:46.889Z327.347° NNW
|